Temp
39 38 38 37 37 36 36 35 35 34 34 33 33 31 31 30 29 29 29 29 30 29 29 29 29 28 28 28 28 28 27 27 26 26 26 26 26 26 26 25 24 24
38 38 37 36 35 35 35 35 35 34 33 32 31 30 29 29 29 30 30 29 29 28 28 28 28 27 27 27 27 27 27 27 26 27 26 25 25 25 24 24 24 24
37 36 36 36 36 35 34 33 33 33 32 31 30 30 29 29 29 29 29 29 28 27 27 27 27 27 27 26 27 27 26 26 25 25 25 24 24 24 23 23 23 23
36 37 36 36 35 34 33 32 31 31 30 30 30 30 30 30 29 29 29 29 28 27 26 26 26 26 26 26 26 26 25 25 24 25 24 24 24 24 23 23 23 23
36 35 35 35 34 33 33 32 31 30 30 30 30 30 29 29 28 28 28 27 27 26 26 26 26 26 26 26 26 25 25 24 24 24 24 23 23 24 23 23 22 22
34 34 34 34 33 33 32 32 31 31 30 30 30 29 29 29 28 28 27 27 27 27 26 26 26 25 25 25 25 25 24 24 24 24 23 23 22 23 24 23 22 22
34 33 33 32 32 32 32 32 31 31 31 30 29 29 29 28 28 27 27 27 27 26 26 26 25 25 25 25 24 24 24 23 23 24 23 22 22 22 22 22 22 21
33 33 32 32 32 31 31 31 31 30 30 29 29 28 28 28 27 27 27 27 26 26 27 27 27 26 25 24 24 24 23 24 23 23 22 21 21 21 21 23 21 21
33 32 32 31 31 31 30 30 30 29 29 29 28 28 27 28 27 27 27 27 26 26 26 26 25 24 24 24 24 24 23 23 22 22 22 21 20 20 20 20 20 20
32 32 31 31 31 30 30 29 29 28 28 28 28 27 27 27 26 26 27 26 26 25 25 24 24 24 24 24 24 23 23 23 22 21 21 20 20 19 19 19 18 18
32 31 31 31 31 30 29 29 28 28 28 28 28 28 28 28 27 27 27 27 26 26 25 24 24 24 24 25 24 23 23 22 21 20 19 19 19 19 21 17 17 16
32 31 32 31 31 30 29 28 28 27 28 29 29 29 29 29 28 28 28 28 28 27 25 24 24 25 24 24 23 22 22 21 20 19 19 19 18 18 17 17 16 16
32 32 32 31 30 30 29 29 28 28 28 28 29 29 29 29 28 27 27 28 27 26 25 24 24 24 24 23 21 20 20 20 19 19 19 18 17 17 16 16 16 16
33 32 32 31 30 30 29 29 29 28 28 29 29 29 29 29 28 28 28 28 27 26 25 24 23 23 23 23 21 20 19 19 19 18 18 17 16 15 16 15 16 16
33 32 32 30 30 30 29 29 29 29 29 29 28 28 29 29 29 28 27 26 26 25 24 24 24 24 23 21 20 20 20 19 18 17 17 17 16 15 15 15 14 14
33 32 31 30 30 30 30 30 29 29 28 28 28 28 28 28 28 27 27 26 25 24 24 24 23 22 23 26 24 21 20 19 18 17 17 16 16 15 15 15 14 14
32 32 32 31 31 31 29 29 29 28 27 27 27 26 26 26 26 26 25 25 24 23 23 24 23 23 27 29 28 27 21 19 18 17 17 17 17 16 15 16 16 15
32 32 31 31 30 29 29 28 28 26 26 25 25 24 24 24 25 25 25 24 24 24 24 23 22 26 30 31 30 28 24 21 18 16 18 18 18 17 17 17 16 16
32 31 30 29 29 29 28 27 26 26 25 24 24 24 24 23 25 24 24 24 23 23 23 23 22 28 31 32 31 30 27 23 18 18 18 18 19 18 17 17 16 16
31 30 29 29 29 28 27 26 25 25 25 25 24 24 23 24 23 23 23 22 23 23 22 22 21 27 32 32 32 31 29 25 20 20 19 19 19 19 18 18 17 15
31 30 29 29 28 27 26 26 25 25 25 24 24 24 23 23 23 22 22 21 21 22 21 21 21 28 32 32 32 32 32 28 21 21 20 19 19 19 19 19 17 15
30 29 29 28 28 27 26 26 25 25 24 24 23 24 23 23 23 22 21 21 21 20 20 19 20 28 31 32 32 33 33 27 22 21 20 19 18 19 19 17 15 15
31 30 28 28 27 26 25 25 25 25 25 24 23 24 23 22 22 22 21 21 20 19 19 20 19 26 31 32 32 32 31 22 21 20 20 18 17 18 16 15 15 15
31 29 28 27 26 25 25 26 26 26 25 24 24 23 23 22 22 21 21 20 20 19 19 20 18 23 30 31 31 32 29 20 20 19 19 17 15 16 15 14 15 18
30 29 28 27 27 27 27 26 26 26 26 24 24 24 24 23 21 21 19 19 19 18 20 20 18 20 29 30 31 31 28 20 20 18 17 15 14 13 15 13 14 17
30 29 29 28 27 27 27 27 27 25 24 24 23 23 23 21 19 19 18 18 17 15 16 18 17 16 22 30 30 30 30 21 20 16 15 14 13 12 10 11 12 12
MSLP
1026.96 1027.08 1027.32 1027.64 1027.92 1028.12 1028.28 1028.56 1028.92 1029.08 1029.44 1029.76 1029.96 1030.56 1030.80 1031.24 1031.52 1031.64 1031.72 1031.80 1031.84 1031.96 1032.24 1032.48 1032.68 1032.96 1033.24 1033.40 1033.48 1033.60 1033.88 1034.16 1034.48 1034.68 1034.80 1034.92 1035.16 1035.24 1035.48 1035.68 1035.84 1035.96
1026.96 1027.08 1027.36 1027.64 1028.00 1028.32 1028.52 1028.56 1028.76 1028.96 1029.44 1029.80 1030.20 1030.64 1031.08 1031.32 1031.56 1031.52 1031.60 1031.72 1031.92 1032.20 1032.48 1032.72 1032.96 1033.16 1033.32 1033.44 1033.56 1033.64 1034.04 1034.28 1034.60 1034.96 1035.00 1035.16 1035.48 1035.60 1035.76 1035.92 1036.04 1036.20
1026.96 1027.12 1027.24 1027.36 1027.64 1028.04 1028.40 1028.76 1028.92 1029.20 1029.52 1030.00 1030.44 1030.76 1031.08 1031.28 1031.40 1031.52 1031.56 1031.68 1032.00 1032.40 1032.68 1032.96 1033.12 1033.28 1033.36 1033.48 1033.64 1033.88 1034.20 1034.48 1034.80 1035.20 1035.28 1035.52 1035.72 1035.80 1036.00 1036.08 1036.20 1036.28
1026.96 1027.00 1027.16 1027.44 1027.72 1028.00 1028.44 1028.76 1029.16 1029.48 1029.88 1030.28 1030.52 1030.80 1030.92 1031.12 1031.20 1031.36 1031.60 1031.84 1032.12 1032.56 1032.88 1033.04 1033.16 1033.28 1033.36 1033.56 1033.80 1034.16 1034.48 1034.80 1035.12 1035.28 1035.48 1035.76 1035.92 1035.96 1036.08 1036.20 1036.40 1036.52
1026.80 1027.08 1027.28 1027.48 1027.84 1028.16 1028.40 1028.64 1029.08 1029.52 1029.84 1030.12 1030.56 1030.76 1030.84 1030.92 1031.04 1031.28 1031.60 1031.96 1032.24 1032.60 1032.84 1033.00 1033.08 1033.20 1033.40 1033.72 1033.96 1034.28 1034.68 1034.96 1035.24 1035.36 1035.52 1035.76 1036.00 1036.00 1036.20 1036.24 1036.36 1036.56
1026.96 1027.12 1027.32 1027.52 1027.84 1028.08 1028.36 1028.60 1029.00 1029.40 1029.80 1030.20 1030.28 1030.48 1030.56 1030.64 1030.80 1031.12 1031.48 1031.84 1032.24 1032.48 1032.72 1032.88 1033.04 1033.32 1033.52 1033.84 1034.16 1034.40 1034.68 1035.00 1035.32 1035.40 1035.56 1035.76 1036.04 1036.16 1036.24 1036.28 1036.36 1036.52
1026.80 1027.08 1027.36 1027.68 1027.96 1028.16 1028.32 1028.68 1029.12 1029.44 1029.76 1029.92 1030.24 1030.32 1030.36 1030.48 1030.68 1031.00 1031.32 1031.68 1032.04 1032.36 1032.60 1032.84 1033.08 1033.40 1033.72 1033.96 1034.20 1034.48 1034.80 1035.00 1035.24 1035.36 1035.48 1035.96 1036.12 1036.24 1036.28 1036.28 1036.44 1036.64
1026.72 1027.04 1027.32 1027.64 1027.96 1028.20 1028.48 1028.84 1029.20 1029.48 1029.76 1030.12 1030.08 1030.24 1030.24 1030.28 1030.52 1030.84 1031.16 1031.56 1032.00 1032.40 1032.72 1032.96 1033.28 1033.52 1033.84 1034.12 1034.36 1034.60 1034.88 1035.04 1035.12 1035.28 1035.56 1035.92 1036.08 1036.12 1036.32 1036.40 1036.52 1036.68
1026.64 1026.96 1027.28 1027.56 1027.84 1028.24 1028.60 1029.00 1029.36 1029.68 1029.96 1030.04 1030.24 1030.52 1030.72 1030.72 1030.76 1030.92 1031.16 1031.44 1031.84 1032.28 1032.64 1032.96 1033.28 1033.56 1033.92 1034.32 1034.64 1034.68 1034.72 1034.96 1035.16 1035.28 1035.48 1035.68 1035.88 1036.08 1036.24 1036.44 1036.56 1036.72
1026.52 1026.80 1027.12 1027.44 1027.72 1028.16 1028.60 1029.08 1029.52 1029.88 1030.08 1030.20 1030.40 1030.68 1030.84 1031.16 1031.36 1031.48 1031.56 1031.64 1031.84 1032.12 1032.40 1032.76 1033.16 1033.40 1033.84 1034.28 1034.60 1034.64 1034.68 1034.88 1035.16 1035.36 1035.48 1035.60 1035.76 1036.04 1036.28 1036.44 1036.56 1036.64
1026.36 1026.68 1026.88 1027.20 1027.52 1028.04 1028.52 1029.08 1029.56 1029.92 1030.12 1030.16 1030.40 1030.60 1030.80 1031.00 1031.32 1031.56 1031.72 1031.80 1031.88 1032.00 1032.24 1032.56 1032.80 1033.12 1033.52 1034.00 1034.36 1034.56 1034.72 1034.96 1035.20 1035.36 1035.40 1035.48 1035.68 1036.00 1036.28 1036.48 1036.60 1036.64
1026.12 1026.44 1026.60 1026.84 1027.24 1027.80 1028.32 1028.92 1029.48 1029.84 1030.00 1030.20 1030.28 1030.44 1030.72 1030.84 1031.04 1031.40 1031.60 1031.80 1031.96 1032.04 1032.20 1032.48 1032.76 1033.08 1033.36 1033.64 1034.08 1034.52 1034.84 1035.00 1035.12 1035.28 1035.36 1035.44 1035.68 1036.04 1036.36 1036.52 1036.56 1036.64
1025.80 1026.00 1026.24 1026.64 1027.04 1027.56 1028.16 1028.76 1029.32 1029.68 1029.92 1030.12 1030.36 1030.40 1030.48 1030.76 1031.12 1031.36 1031.68 1031.84 1032.00 1032.16 1032.44 1032.68 1032.92 1033.20 1033.44 1033.64 1034.00 1034.48 1034.80 1034.84 1034.96 1035.16 1035.28 1035.48 1035.80 1036.12 1036.36 1036.48 1036.56 1036.68
1025.64 1025.96 1026.24 1026.60 1027.12 1027.68 1028.12 1028.60 1029.12 1029.56 1029.84 1030.16 1030.36 1030.44 1030.48 1030.64 1030.84 1031.08 1031.56 1031.88 1032.12 1032.32 1032.60 1032.84 1033.04 1033.40 1033.60 1033.80 1034.04 1034.48 1034.68 1034.76 1034.88 1035.04 1035.24 1035.52 1035.84 1036.16 1036.32 1036.44 1036.56 1036.72
1025.84 1026.20 1026.48 1026.84 1027.28 1027.80 1028.20 1028.56 1028.92 1029.28 1029.64 1030.00 1030.28 1030.40 1030.44 1030.60 1030.80 1031.12 1031.56 1032.00 1032.28 1032.52 1032.88 1033.12 1033.36 1033.68 1033.92 1033.96 1034.08 1034.32 1034.52 1034.64 1034.84 1035.04 1035.24 1035.48 1035.84 1036.12 1036.32 1036.44 1036.56 1036.68
1026.04 1026.32 1026.56 1026.92 1027.28 1027.68 1028.04 1028.40 1028.72 1029.08 1029.40 1029.80 1030.12 1030.32 1030.48 1030.68 1030.92 1031.24 1031.60 1031.92 1032.36 1032.80 1033.04 1033.20 1033.48 1033.72 1033.88 1033.80 1033.80 1033.84 1034.12 1034.48 1034.80 1035.12 1035.36 1035.64 1035.92 1036.16 1036.32 1036.40 1036.52 1036.56
1026.00 1026.36 1026.64 1026.88 1027.12 1027.60 1028.04 1028.44 1028.76 1029.08 1029.44 1029.76 1030.12 1030.40 1030.64 1030.84 1031.00 1031.24 1031.60 1031.96 1032.28 1032.56 1032.76 1033.00 1033.24 1033.56 1033.60 1033.40 1033.44 1033.56 1033.80 1034.20 1034.64 1035.16 1035.52 1035.84 1036.04 1036.24 1036.44 1036.40 1036.36 1036.36
1025.48 1026.00 1026.48 1026.80 1027.16 1027.52 1027.96 1028.44 1028.80 1029.20 1029.52 1029.88 1030.20 1030.48 1030.76 1030.96 1031.04 1031.24 1031.60 1032.00 1032.28 1032.44 1032.68 1032.96 1033.40 1033.56 1033.28 1033.16 1033.12 1033.20 1033.56 1034.08 1034.76 1035.24 1035.52 1035.84 1036.08 1036.20 1036.24 1036.24 1036.24 1036.32
1025.08 1025.64 1026.20 1026.68 1027.08 1027.52 1027.96 1028.44 1028.84 1029.24 1029.64 1030.00 1030.24 1030.44 1030.76 1030.88 1030.92 1031.24 1031.64 1032.00 1032.12 1032.24 1032.44 1032.76 1033.20 1033.12 1032.88 1032.76 1032.72 1032.92 1033.32 1034.00 1034.72 1035.16 1035.52 1035.76 1035.88 1036.00 1036.00 1036.00 1036.08 1036.16
1024.96 1025.44 1026.00 1026.60 1027.20 1027.60 1027.96 1028.28 1028.68 1028.96 1029.40 1029.84 1030.24 1030.60 1030.76 1030.88 1031.04 1031.24 1031.60 1031.92 1032.04 1032.12 1032.36 1032.76 1033.16 1032.96 1032.68 1032.48 1032.40 1032.60 1033.04 1033.76 1034.48 1034.92 1035.36 1035.64 1035.76 1035.80 1035.80 1035.80 1035.84 1035.96
1024.72 1025.16 1025.72 1026.44 1027.08 1027.60 1027.92 1028.16 1028.44 1028.88 1029.28 1029.68 1030.00 1030.24 1030.44 1030.52 1030.72 1031.12 1031.40 1031.68 1031.88 1032.04 1032.24 1032.52 1032.80 1032.64 1032.28 1032.20 1032.16 1032.28 1032.60 1033.32 1034.20 1034.64 1035.12 1035.44 1035.52 1035.56 1035.56 1035.56 1035.64 1035.80
1024.60 1025.08 1025.60 1026.16 1026.80 1027.36 1027.76 1028.00 1028.28 1028.52 1028.88 1029.40 1029.88 1030.20 1030.44 1030.52 1030.80 1031.12 1031.28 1031.48 1031.68 1031.88 1032.12 1032.36 1032.52 1032.24 1031.92 1031.88 1031.96 1032.04 1032.28 1032.88 1033.88 1034.24 1034.76 1035.08 1035.28 1035.32 1035.36 1035.44 1035.56 1035.72
1024.36 1024.88 1025.36 1025.88 1026.52 1027.16 1027.60 1027.84 1028.08 1028.44 1028.80 1029.20 1029.56 1029.80 1030.04 1030.20 1030.44 1030.68 1031.00 1031.20 1031.36 1031.60 1031.76 1031.84 1032.08 1031.84 1031.60 1031.60 1031.76 1031.92 1032.16 1032.92 1033.56 1034.00 1034.40 1034.84 1035.04 1035.20 1035.32 1035.36 1035.44 1035.56
1024.08 1024.68 1025.20 1025.72 1026.32 1026.72 1027.04 1027.36 1027.64 1028.00 1028.32 1028.68 1028.88 1029.24 1029.56 1029.72 1030.12 1030.56 1030.84 1030.92 1031.04 1031.20 1031.36 1031.28 1031.40 1031.52 1031.28 1031.36 1031.52 1031.72 1032.04 1032.80 1033.32 1033.80 1034.20 1034.60 1034.92 1035.12 1035.28 1035.28 1035.24 1035.16
1023.96 1024.52 1024.96 1025.36 1025.76 1026.16 1026.60 1026.92 1027.16 1027.40 1027.84 1028.56 1028.72 1028.80 1029.00 1029.48 1030.04 1030.24 1030.52 1030.72 1030.88 1031.12 1031.48 1031.48 1031.24 1031.36 1031.04 1031.08 1031.20 1031.44 1031.88 1032.68 1033.20 1033.64 1034.04 1034.36 1034.76 1035.08 1035.08 1035.12 1035.12 1034.96
1023.60 1024.04 1024.44 1024.80 1025.16 1025.76 1026.32 1026.60 1027.00 1027.56 1027.88 1028.16 1028.52 1028.72 1029.00 1029.40 1029.84 1030.08 1030.20 1030.40 1030.76 1031.16 1031.40 1031.52 1031.44 1031.40 1031.08 1030.76 1030.84 1031.04 1031.36 1032.32 1032.84 1033.44 1033.64 1034.04 1034.48 1034.76 1035.04 1034.92 1034.92 1034.96
Wind_Speed
10 9 11 10 9 8 10 10 8 9 8 7 8 8 8 6 5 6 6 6 7 8 7 7 7 7 6 6 6 7 7 7 6 5 6 7 6 6 7 6 5 5
10 10 8 8 7 6 6 7 9 9 9 7 7 7 6 7 5 7 8 8 7 8 7 7 6 6 6 6 6 8 7 7 7 3 7 7 5 6 6 5 5 4
9 9 11 12 11 10 9 7 7 7 8 7 7 7 7 6 7 6 7 8 8 7 7 6 6 6 7 7 6 7 7 7 7 5 6 6 4 6 5 5 5 5
9 10 10 9 9 11 9 9 7 7 7 8 8 7 7 7 7 8 8 8 8 7 6 6 7 6 7 7 7 7 7 6 5 5 6 5 4 5 5 5 5 5
10 9 8 9 8 8 9 10 10 8 9 8 8 8 8 9 9 9 8 7 7 7 6 7 6 7 7 7 6 8 6 6 5 5 6 6 3 4 3 5 5 5
7 7 7 9 9 10 10 10 10 10 9 9 10 8 8 9 9 9 9 9 7 8 7 6 7 6 7 7 6 6 6 6 5 6 6 6 4 3 3 5 5 5
10 9 9 8 9 8 9 9 8 8 9 8 8 8 9 9 10 10 9 9 9 8 8 7 8 7 6 6 6 6 5 6 5 6 7 5 5 4 3 4 4 5
10 8 8 8 9 8 8 8 8 8 8 8 9 8 8 10 10 9 9 9 8 7 7 7 7 7 6 6 6 7 6 4 6 6 6 5 4 4 3 3 3 4
10 10 9 10 10 8 8 8 7 6 6 8 7 7 4 6 8 8 9 9 8 8 8 7 7 7 6 5 4 6 7 5 5 6 6 6 5 4 3 3 3 3
11 10 11 10 10 8 9 7 6 6 6 6 6 6 7 5 4 6 7 8 9 8 8 8 7 7 6 5 5 6 7 7 5 5 5 5 5 4 3 3 3 3
11 11 12 12 11 9 9 8 7 7 6 7 8 8 7 8 7 6 7 8 8 9 9 8 8 9 8 7 6 4 6 6 6 5 5 5 5 4 4 3 3 3
12 12 13 13 12 10 11 9 8 7 7 7 8 10 8 8 9 7 7 7 7 8 8 8 8 8 9 8 7 6 6 6 6 5 5 5 5 4 3 3 3 2
13 13 12 12 11 11 10 9 9 8 7 8 7 8 9 9 8 7 5 6 7 7 7 7 8 8 8 7 8 6 6 6 6 5 5 5 4 4 3 3 3 2
12 10 11 10 9 9 10 9 9 8 8 7 7 8 9 9 10 9 7 6 6 6 6 6 7 6 5 5 6 6 6 6 6 6 5 4 4 3 2 2 2 2
9 8 8 8 9 9 10 10 10 9 8 8 7 7 7 8 7 8 8 7 6 6 6 5 5 5 5 6 7 7 6 6 5 5 5 5 3 2 1 2 1 1
8 7 8 9 10 11 10 10 10 10 9 9 9 7 7 7 7 7 7 8 8 5 5 5 5 4 7 12 10 9 7 6 6 5 4 3 3 3 2 2 2 1
8 9 9 10 10 10 8 10 10 8 8 7 6 6 7 7 7 8 7 7 8 10 9 6 6 6 13 13 13 13 8 7 6 5 4 3 3 4 4 3 2 2
11 11 10 10 10 9 9 8 7 7 7 7 7 7 6 5 7 7 7 7 7 7 7 6 6 9 15 14 14 14 11 8 6 4 3 4 4 5 5 4 3 3
11 11 11 10 9 8 8 8 8 8 7 7 8 7 6 7 9 8 8 7 7 8 8 7 7 13 16 15 14 14 14 10 5 5 4 4 5 5 4 4 4 4
11 10 9 9 8 8 8 9 9 10 8 6 6 6 7 6 6 7 6 7 8 8 7 6 8 12 16 15 15 15 14 11 6 6 5 6 6 6 5 5 4 4
11 11 11 9 9 9 9 9 10 8 8 8 8 9 9 10 9 10 9 8 7 7 7 8 8 14 16 15 15 16 15 12 7 6 6 6 6 6 6 5 4 4
11 10 10 10 10 10 10 10 10 11 11 8 7 7 5 4 4 5 8 8 8 8 7 8 8 16 16 16 16 15 16 7 7 6 6 6 6 7 6 3 3 4
11 11 11 11 10 10 11 11 11 10 9 7 9 8 9 9 9 9 8 9 10 10 10 9 8 14 17 16 16 16 12 6 7 6 6 6 6 6 5 4 4 5
12 11 11 11 11 13 13 12 10 8 9 9 11 11 11 11 9 8 8 8 10 11 11 11 10 12 17 16 16 17 10 7 6 6 6 6 6 6 4 5 5 11
10 11 12 13 13 13 12 13 12 12 9 8 9 9 10 8 8 8 8 7 7 8 7 9 7 10 16 17 17 17 11 7 7 6 7 7 5 6 5 5 5 7
11 13 13 14 14 12 10 10 8 7 9 11 9 8 8 7 7 7 9 8 6 6 7 8 6 7 10 18 18 18 17 9 7 8 9 8 6 6 6 4 5 5
Wind_Direction
155 155 153 155 156 157 154 150 152 145 143 144 140 147 144 143 139 133 128 119 111 104 100 99 100 101 100 99 99 95 89 92 84 80 83 87 86 93 96 96 91 99
164 157 151 146 144 147 150 149 150 147 145 143 139 136 135 138 148 138 129 116 103 102 103 103 104 110 111 105 102 99 92 90 88 73 92 86 92 92 95 96 99 97
162 162 160 161 160 157 153 148 142 141 139 139 135 141 141 145 138 129 121 117 113 112 109 110 109 108 107 102 99 97 103 102 99 96 92 97 98 99 97 98 90 90
170 168 162 157 154 153 150 143 139 132 131 140 154 155 147 145 136 127 119 116 116 116 117 115 116 111 106 105 103 97 102 99 112 111 103 92 94 103 100 98 99 87
169 164 162 154 151 149 148 147 148 151 154 151 145 152 147 143 135 128 125 120 122 125 127 125 119 114 113 109 110 112 110 113 114 112 108 103 94 98 107 105 102 96
165 163 156 156 157 155 156 156 156 157 154 158 162 154 151 143 136 135 135 133 136 137 134 131 122 116 115 113 110 113 123 119 125 119 109 107 100 90 101 103 102 98
166 163 160 156 156 161 154 157 157 158 164 161 149 159 152 145 142 141 141 141 142 142 139 135 127 123 118 119 118 120 116 123 125 117 112 110 110 97 93 99 104 106
167 162 156 155 159 158 157 159 162 165 164 158 162 159 156 148 147 145 141 141 137 132 129 123 121 124 122 118 125 124 122 123 122 118 115 119 112 110 102 105 114 109
163 162 159 161 159 159 161 163 163 163 164 162 154 150 142 142 145 142 141 136 132 133 131 128 130 125 119 118 132 135 131 126 126 128 132 133 125 122 120 120 105 105
170 162 161 163 163 162 163 163 160 163 164 150 143 137 139 126 123 131 132 135 135 138 137 135 131 126 126 136 147 144 135 135 135 132 133 132 129 127 123 114 121 100
171 168 167 167 164 160 163 159 162 164 162 153 148 148 145 140 136 138 142 147 150 150 145 144 143 140 140 144 144 140 138 139 140 136 131 127 125 124 123 122 113 126
175 172 174 170 165 163 163 162 163 168 162 158 159 151 148 153 148 154 159 157 154 150 145 143 142 143 136 141 143 140 142 140 135 133 129 120 115 116 124 131 132 130
179 179 173 170 168 163 158 160 166 167 163 162 164 160 157 155 157 151 160 157 146 121 147 150 145 146 141 140 139 145 149 141 133 128 121 115 118 127 129 132 132 139
183 175 171 168 160 156 160 161 161 162 163 163 164 165 165 163 162 160 155 150 145 145 149 149 144 143 131 131 140 150 146 135 135 134 126 117 115 117 135 143 150 168
173 170 164 158 156 157 164 166 166 164 161 162 170 171 168 165 154 146 143 140 138 122 137 137 134 146 153 158 151 152 141 135 135 130 128 126 119 132 150 157 179 187
170 168 165 160 162 169 172 169 167 167 166 168 173 170 160 152 144 140 144 141 142 125 128 140 157 165 181 174 166 149 141 134 123 123 126 130 145 167 190 195 193 200
166 174 169 172 174 170 171 172 169 166 166 167 163 159 155 150 147 148 152 152 146 138 155 171 171 174 187 176 163 148 137 132 129 130 127 142 178 187 194 209 217 201
175 174 175 178 172 176 171 169 164 163 167 165 160 156 156 150 152 156 154 159 163 165 172 179 160 193 189 179 165 152 139 133 129 137 152 180 195 205 205 201 205 205
172 172 176 177 177 169 165 164 166 166 165 167 173 165 151 163 167 160 170 172 173 172 181 181 181 198 192 182 169 159 150 136 141 143 168 197 202 206 208 205 200 200
174 171 174 174 168 168 168 170 168 177 173 166 156 156 169 170 167 168 171 182 185 183 181 186 191 205 194 183 175 167 162 150 150 159 178 198 208 210 214 211 203 200
172 173 174 167 170 174 175 177 177 171 170 172 171 176 176 179 179 181 190 186 187 183 187 192 198 205 193 187 182 179 179 167 156 161 174 200 211 215 215 213 194 189
176 174 170 170 173 176 180 182 180 181 177 171 169 179 186 171 187 192 191 190 189 188 188 200 202 203 195 191 186 186 187 162 158 170 173 195 207 215 214 199 197 201
174 172 175 173 173 177 186 186 185 184 180 171 176 182 183 190 195 196 194 192 193 192 197 203 197 203 196 192 187 186 184 144 166 167 182 194 201 209 217 207 211 210
174 175 175 175 176 187 190 193 191 188 184 176 182 182 193 200 193 193 199 199 197 201 201 201 197 200 196 191 189 189 179 161 168 174 189 200 206 217 212 224 211 223
172 176 180 182 188 192 191 191 190 189 182 178 196 195 200 190 189 196 200 202 205 207 215 220 199 196 196 192 190 191 180 156 170 175 193 199 191 214 221 207 228 232
178 182 186 186 191 189 190 196 185 175 185 190 195 196 193 186 190 198 200 207 196 200 211 220 212 202 205 194 192 192 188 164 175 168 202 203 199 202 209 226 222 231